Orbital Elements at Epoch 2458943.5 (2020-Apr-04.0) TDB
Reference: JPL 1 (heliocentric ecliptic J2000)
Element | Value | Uncertainty (1-sigma) | Units |
e | .559033737088104 | 0.0026371 | |
a | 2.221044026724281 | 0.013076 | au |
q | .9794054842273957 | 9.0928e-05 | au |
i | .8561503545732909 | 0.0029045 | deg |
node | 12.61253919266728 | 0.00091315 | deg |
peri | 209.0620601177793 | 0.01781 | deg |
M | 353.4967497687754 | 0.059291 | deg |
tp | 2458965.340478163179 (2020-Apr-25.84047816) | 0.0063488 | TDB |
period | 1209.021928910745 3.31 | 10.677 0.02923 | d yr |
n | .2977613485673813 | 0.0026296 | deg/d |
Q | 3.462682569221167 | 0.020386 | au |
|
| | Orbit Determination Parameters
Additional Information
|